Back to catalog

STARLINK-6030

AliveCommunicationsVLEO
NORAD 56107·PAYLOAD·🇺🇸 United States

Launched Mar 29, 2023 from Cape Canaveral Space Force Station

Loading…

Next Passes (next 24 hours)

TLE

FreshSource: CelesTrak SupGP

Epoch: Sep 14, 2026, 14:15 UTC

1 56107C 23046Q   26257.59423611  .00003677  00000+0  13311-3 0  2578
2 56107  43.0029 175.0365 0001508 269.3071 257.3132 15.27597879    12

Track STARLINK-6030 in real time with AllMySat

Download on the App Store